[[{"header":{"parameterUnit":"m.s-1","parameterCategory":1,"la1":30.2991,"la2":30.254,"lo1":-89.0895,"lo2":-89.0444,"dy":0.0017,"dx":0.0017,"nx":28,"ny":28,"refTime":"2024-05-25T21:00:00:Z","depth":0,"parameterNumber":2,"parameterNumberName":"U-component_of_WINDS"},"data":[0,0,0,0,0,0,0,0,0,0,0,0,0,0,0,0,0,0,0,0,0,0,0,0,0,0,0,0,0,0,0,0,0,0,0,0,0,0,0,0,0,0,0,0,0,0,0,0,0,0,0,0,0,0,0,0,0,0,3.004,3.0041,0,3.0145,3.0146,3.0148,3.0149,3.0147,3.0146,3.0145,3.025,3.0254,3.0258,0,0,0,0,0,0,0,0,0,0,0,0,0,2.9837,2.9841,3.004,3.0041,3.0043,3.0145,3.0147,3.0148,3.0149,3.0147,3.0146,3.0144,3.0249,3.0254,3.0259,0,0,0,0,0,0,0,0,0,0,0,0,0,2.9932,2.9842,3.004,3.0055,3.0058,3.0145,3.0147,3.0148,3.0149,3.0147,3.0145,3.0143,3.0247,3.0253,3.0259,3.0337,0,0,3.0278,3.028,0,0,0,0,0,0,0,0,2.9926,2.9939,3.0052,3.0055,3.0057,3.0132,3.0114,3.0211,3.015,3.0114,3.0145,3.0142,3.0212,3.0221,3.0245,3.0342,3.0346,3.0278,3.0282,3.0285,3.0286,0,0,0,0,0,0,0,2.992,2.9935,3.0082,3.0053,3.0057,3.0056,3.0067,3.0132,3.0173,3.0117,3.0118,3.013,3.0213,3.0239,3.0248,3.0348,3.0278,3.0284,3.0287,3.029,3.0511,3.0513,0,0,0,0,0,0,2.991,2.9929,3.0078,3.0085,2.9986,3.0061,3.0074,3.011,3.0173,3.018,3.0132,3.013,3.023,3.0241,3.0251,3.0344,3.0285,3.029,3.0294,3.0508,3.0511,3.0513,0,0,0,0,0,0,2.9906,2.9924,3.0074,3.0007,3.0026,3.0067,3.0107,3.0113,3.0139,3.0184,3.0191,3.0151,3.0229,3.0243,3.0315,3.0348,3.0293,3.0299,3.0506,3.0509,3.0512,3.0532,0,0,0,0,0,0,2.99,2.9922,2.9953,3.0008,3.003,3.0137,3.0109,3.0117,3.015,3.0148,3.0203,3.021,3.0228,3.0306,3.0321,3.0355,3.0303,3.0503,3.0507,3.0511,3.0528,3.0536,3.0542,0,0,0,0,0,2.9893,2.9954,2.9954,2.9972,3.0069,3.0139,3.0151,3.0171,3.0152,3.0183,3.0211,3.0209,3.0342,3.0313,3.033,3.0367,3.0501,3.0506,3.0511,3.0526,3.0534,3.0541,0,0,0,0,0,0,2.9902,2.9962,2.9963,3.0044,3.0086,3.0139,3.0178,3.018,3.0228,3.0225,3.0247,3.0259,3.033,3.0356,3.0323,3.0444,3.0419,3.0428,3.0424,3.0433,3.0439,3.0431,3.0308,0,0,0,0,0,2.9913,2.9966,3.0015,3.0082,3.0103,3.0137,3.0168,3.018,3.0224,3.0242,3.0276,3.0318,3.037,3.0403,3.0453,3.0533,3.0543,3.0566,3.0573,3.0578,3.0584,3.0626,3.0636,3.053,3.053,3.053,0,0,2.9937,2.9977,3.0009,3.0085,3.0119,3.0171,3.0152,3.0209,3.0248,3.0251,3.032,3.0347,3.0395,3.0471,3.0506,3.0495,3.0616,3.0584,3.0588,3.0592,3.0632,3.0642,3.0651,3.0533,3.0533,3.0532,0,0,3.0008,3.0044,3.0102,3.0137,3.0189,3.0211,3.0225,3.0277,3.0295,3.0365,3.0368,3.0414,3.0502,3.0536,3.0565,3.0647,3.0645,3.0663,3.0696,3.0736,3.0745,3.0752,3.0779,3.0789,3.0669,3.0669,3.067,0,3.0031,3.0111,3.0132,3.0189,3.0221,3.0226,3.0285,3.0317,3.0383,3.0404,3.0391,3.0501,3.0534,3.0617,3.0636,3.0661,3.0676,3.0656,3.0742,3.075,3.0757,3.0783,3.0793,3.0671,3.0671,3.0671,3.0671,0,3.0135,3.0191,3.0232,3.0295,3.0332,3.0389,3.0417,3.0453,3.0461,3.0483,3.0554,3.0594,3.0651,3.0672,3.0681,3.0755,3.0746,3.0737,3.0712,3.0768,3.0793,3.0803,3.0673,3.0673,3.0672,3.0672,0,0,3.0214,3.0287,3.0302,3.0329,3.0387,3.0429,3.0486,3.0542,3.0571,3.0616,3.0662,3.0737,3.0728,3.0761,3.0773,3.0809,3.0868,3.0795,3.0797,3.0805,3.095,3.0955,3.0966,3.0868,3.087,3.0872,3.0945,0,3.0289,3.039,3.041,3.0497,3.0547,3.0553,3.0602,3.0641,3.0664,3.0709,3.0734,3.0785,3.0771,3.0791,3.0826,3.0853,3.0897,3.0848,3.091,3.0912,3.0895,3.0979,3.0985,3.1052,3.0955,3.0957,3.0958,0,3.0389,3.0436,3.0529,3.0578,3.0599,3.0643,3.0695,3.0739,3.0783,3.0797,3.0833,3.0841,3.0898,3.0872,3.095,3.0916,3.0943,3.096,3.0963,3.0968,3.0937,3.0984,3.1075,3.1084,3.0974,3.0972,3.0971,0,3.0434,3.0521,3.0587,3.0611,3.067,3.07,3.0726,3.0769,3.0801,3.0846,3.0866,3.0918,3.0946,3.0984,3.1005,3.0985,3.1081,3.1057,3.1092,3.1092,3.1111,3.1109,3.1205,3.1132,3.1131,3.1131,3.1131,0,3.0514,3.057,3.0607,3.0648,3.071,3.0732,3.0792,3.0817,3.0855,3.0899,3.0908,3.0949,3.0975,3.1019,3.1036,3.1097,3.111,3.1121,3.1125,3.1119,3.1118,3.1136,3.1131,3.1134,3.1133,3.1133,3.1132,0,3.0574,3.0602,3.0674,3.0724,3.0738,3.0781,3.0823,3.0862,3.0884,3.094,3.0954,3.0989,3.1042,3.1067,3.1133,3.1144,3.1212,3.1213,3.1197,3.1198,3.1231,3.1226,3.1339,3.1354,3.1273,3.1274,3.1275,0,3.0623,3.0666,3.072,3.0751,3.0777,3.0826,3.0859,3.0882,3.0915,3.0968,3.1,3.1053,3.1096,3.118,3.121,3.1259,3.1261,3.1297,3.1268,3.1261,3.1258,3.1255,3.1258,3.1301,3.1302,3.1303,3.1303,0,3.0705,3.0716,3.0763,3.0814,3.0852,3.0894,3.0935,3.0959,3.0988,3.1024,3.1078,3.1112,3.1178,3.123,3.1281,3.1307,3.1309,3.1312,3.1323,3.1317,3.1305,3.1309,3.1208,3.1309,3.1309,3.1308,3.1308,3.1308,3.0759,3.0796,3.084,3.0892,3.0925,3.0962,3.1,3.1027,3.1073,3.1129,3.114,3.1196,3.1238,3.1307,3.1334,3.1378,3.1369,3.1385,3.1389,3.1392,3.1392,3.1299,3.1387,3.1387,3.1387,3.1387,3.1387,0,3.0839,3.0868,3.0915,3.0971,3.1011,3.1011,3.1056,3.1088,3.1138,3.1177,3.122,3.1281,3.1331,3.1365,3.1415,3.1443,3.1446,3.1456,3.1453,3.1458,3.1398,3.1383,3.1453,3.1453,3.1453,3.1453,3.1453,3.1453,3.0886,3.0948,3.0965,3.1043,3.1071,3.1127,3.1152,3.1186,3.1217,3.1285,3.1326,3.1349,3.1385,3.1438,3.1483,3.1492,3.1509,3.1519,3.1527,3.1469,3.1462,3.1456,3.1442,3.1523,3.1523,3.1583,3.1583,3.1584]},{"header":{"parameterUnit":"m.s-1","parameterCategory":1,"la1":30.2991,"la2":30.254,"lo1":-89.0895,"lo2":-89.0444,"dy":0.0017,"dx":0.0017,"nx":28,"ny":28,"refTime":"2024-05-25T21:00:00:Z","depth":0,"parameterNumber":3,"parameterNumberName":"V-component_of_WINDS"},"data":[0,0,0,0,0,0,0,0,0,0,0,0,0,0,0,0,0,0,0,0,0,0,0,0,0,0,0,0,0,0,0,0,0,0,0,0,0,0,0,0,0,0,0,0,0,0,0,0,0,0,0,0,0,0,0,0,0,0,4.3943,4.3945,0,4.4152,4.4154,4.4157,4.4182,4.418,4.4178,4.4177,4.4388,4.4395,4.4402,0,0,0,0,0,0,0,0,0,0,0,0,0,4.3562,4.3569,4.3943,4.3945,4.3948,4.4152,4.4155,4.4157,4.4183,4.418,4.4178,4.4176,4.4385,4.4394,4.4403,0,0,0,0,0,0,0,0,0,0,0,0,0,4.3745,4.3571,4.3942,4.3985,4.3991,4.4151,4.4155,4.4158,4.4183,4.418,4.4177,4.4174,4.4382,4.4393,4.4404,4.4535,0,0,4.4439,4.4444,0,0,0,0,0,0,0,0,4.3734,4.3759,4.3976,4.3983,4.399,4.4138,4.4098,4.4284,4.4184,4.411,4.4176,4.4173,4.4307,4.4324,4.437,4.4545,4.4554,4.444,4.4446,4.4451,4.4455,0,0,0,0,0,0,0,4.3721,4.375,4.4025,4.3979,4.3988,4.3993,4.4016,4.4133,4.4223,4.4117,4.4119,4.4143,4.431,4.4359,4.4375,4.4557,4.4439,4.4449,4.4456,4.4461,4.4848,4.4851,0,0,0,0,0,0,4.3701,4.3739,4.4019,4.4032,4.3852,4.4002,4.4028,4.4093,4.4222,4.4239,4.4146,4.4144,4.4341,4.4362,4.4383,4.4544,4.4451,4.4462,4.4468,4.4845,4.4849,4.4853,0,0,0,0,0,0,4.3693,4.3726,4.401,4.3886,4.3923,4.4012,4.4086,4.4099,4.4149,4.4244,4.426,4.418,4.434,4.4367,4.4497,4.4552,4.4467,4.4477,4.484,4.4846,4.4851,4.4867,0,0,0,0,0,0,4.3682,4.3723,4.3774,4.3887,4.3929,4.4122,4.4089,4.4105,4.4168,4.4168,4.428,4.4296,4.4339,4.448,4.4508,4.4566,4.4486,4.4836,4.4843,4.4849,4.4862,4.4872,4.4881,0,0,0,0,0,4.3668,4.377,4.3777,4.3811,4.3996,4.4126,4.415,4.4199,4.4173,4.4225,4.4286,4.4292,4.4541,4.4493,4.4525,4.4587,4.4833,4.4841,4.4849,4.4858,4.487,4.4881,0,0,0,0,0,0,4.3661,4.3786,4.3795,4.3936,4.402,4.413,4.4197,4.421,4.4302,4.4298,4.4353,4.4379,4.4506,4.4559,4.4504,4.4719,4.4684,4.4699,4.468,4.4693,4.4702,4.4687,4.4495,0,0,0,0,0,4.3676,4.3772,4.3875,4.399,4.4032,4.4107,4.4165,4.4196,4.4284,4.432,4.439,4.4475,4.4572,4.4635,4.473,4.4869,4.4894,4.4927,4.4937,4.4944,4.4956,4.5034,4.505,4.4879,4.4879,4.4878,0,0,4.3707,4.3788,4.3845,4.3991,4.4059,4.4157,4.4137,4.424,4.4313,4.4335,4.4463,4.4517,4.4616,4.4751,4.4814,4.4799,4.5009,4.4954,4.4959,4.4968,4.5044,4.506,4.5074,4.4884,4.4883,4.4882,0,0,4.3815,4.3885,4.3989,4.4058,4.4162,4.4212,4.4236,4.4344,4.4381,4.451,4.4529,4.4615,4.4781,4.485,4.4907,4.504,4.5049,4.5069,4.5119,4.5193,4.5207,4.5219,4.5267,4.5283,4.508,4.5081,4.5081,0,4.3841,4.399,4.404,4.4144,4.4207,4.4232,4.4337,4.4401,4.453,4.4573,4.4554,4.4763,4.4831,4.4983,4.5015,4.506,4.5089,4.5057,4.5201,4.5214,4.5226,4.5272,4.5289,4.5082,4.5082,4.5082,4.5082,0,4.4017,4.4119,4.419,4.4315,4.4386,4.449,4.4555,4.462,4.4644,4.4694,4.4824,4.4907,4.5018,4.5056,4.508,4.5211,4.5199,4.519,4.5156,4.5243,4.5287,4.5305,4.5085,4.5084,4.5084,4.5083,0,0,4.4127,4.4278,4.4304,4.4361,4.4477,4.4557,4.466,4.477,4.4825,4.4913,4.5001,4.5141,4.5133,4.5198,4.5229,4.5294,4.5394,4.5278,4.5281,4.5297,4.5544,4.555,4.557,4.54,4.5404,4.5407,4.5535,0,4.4249,4.4436,4.4484,4.4643,4.4738,4.4762,4.4852,4.4933,4.4982,4.5069,4.5123,4.5221,4.5204,4.5243,4.5308,4.5368,4.5444,4.5359,4.5482,4.5486,4.5458,4.5593,4.5601,4.5718,4.5553,4.5556,4.5558,0,4.4416,4.4508,4.4677,4.4781,4.4822,4.4903,4.5007,4.509,4.5181,4.5212,4.5284,4.5309,4.5416,4.5376,4.5524,4.5465,4.5518,4.5555,4.5561,4.5575,4.5528,4.5611,4.5757,4.5775,4.5586,4.5583,4.5581,0,4.448,4.4646,4.4769,4.4817,4.4941,4.4997,4.505,4.5138,4.5201,4.5292,4.5333,4.5434,4.549,4.5567,4.5618,4.5584,4.5763,4.5726,4.5791,4.579,4.5829,4.5826,4.5986,4.5861,4.5861,4.586,4.586,0,4.4612,4.4714,4.48,4.4875,4.499,4.5043,4.5155,4.5209,4.5287,4.5372,4.5399,4.5478,4.554,4.5628,4.5668,4.5785,4.5809,4.5837,4.5847,4.5836,4.5832,4.5872,4.5865,4.5865,4.5864,4.5863,4.5862,0,4.4704,4.4765,4.49,4.5006,4.5035,4.5115,4.5205,4.5279,4.5328,4.5436,4.5464,4.5542,4.5646,4.5705,4.5835,4.5862,4.5993,4.5998,4.5963,4.5967,4.6029,4.6023,4.6221,4.6249,4.6104,4.6106,4.6107,0,4.4784,4.4864,4.4978,4.5038,4.5093,4.5188,4.5253,4.5307,4.5373,4.5482,4.5542,4.5648,4.5736,4.5901,4.5968,4.6068,4.6076,4.6139,4.6091,4.6077,4.6078,4.6073,4.6081,4.6147,4.6148,4.6149,4.615,0,4.492,4.4947,4.5039,4.5143,4.5219,4.5302,4.5385,4.5432,4.55,4.5572,4.5679,4.5747,4.5881,4.5986,4.6091,4.6145,4.6159,4.6164,4.6185,4.6175,4.6152,4.6166,4.5986,4.616,4.6159,4.6158,4.6158,4.6157,4.501,4.5082,4.5173,4.5275,4.5343,4.542,4.5494,4.5553,4.5644,4.5758,4.5784,4.5897,4.5984,4.6127,4.6184,4.6272,4.6261,4.629,4.6298,4.6304,4.6307,4.6136,4.6291,4.6291,4.6291,4.6291,4.6291,0,4.5148,4.5208,4.5302,4.5417,4.5497,4.5503,4.5595,4.5661,4.5761,4.5842,4.5928,4.605,4.6152,4.6227,4.633,4.6386,4.6395,4.6411,4.6408,4.6421,4.6311,4.6284,4.6402,4.6402,4.6402,4.6402,4.6402,4.6402,4.523,4.5352,4.5388,4.5544,4.5603,4.5715,4.5766,4.5837,4.5902,4.6038,4.6123,4.6171,4.625,4.6359,4.6451,4.6471,4.6508,4.6523,4.6543,4.644,4.6428,4.6417,4.6391,4.6531,4.6531,4.6646,4.6647,4.6648]}]]